Total_Precipitation_Accumulation
0.04 0.03 0.03 0.04 0.03 0.01 0.00 0.00 0.00 0.00 0.00 0.00 0.00 0.00 0.00 0.00 0.00 0.00 0.01 0.01 0.02 0.03 0.06 0.17 0.24 0.25 0.28 0.32 0.30 0.27 0.25 0.23 0.24 0.27 0.32 0.34 0.35 0.35 0.36 0.35 0.32 0.33 0.35 0.36 0.35 0.35 0.38 0.34 0.31
0.05 0.04 0.06 0.09 0.04 0.01 0.00 0.00 0.00 0.00 0.00 0.00 0.00 0.00 0.00 0.00 0.00 0.00 0.00 0.00 0.01 0.02 0.05 0.11 0.20 0.25 0.29 0.32 0.32 0.30 0.27 0.26 0.26 0.29 0.32 0.33 0.33 0.32 0.32 0.33 0.33 0.38 0.39 0.41 0.39 0.37 0.39 0.34 0.29
0.07 0.07 0.08 0.07 0.03 0.01 0.00 0.00 0.00 0.00 0.00 0.00 0.00 0.00 0.00 0.00 0.00 0.00 0.00 0.00 0.00 0.01 0.03 0.10 0.19 0.26 0.32 0.34 0.35 0.34 0.33 0.33 0.34 0.33 0.35 0.36 0.36 0.32 0.31 0.28 0.31 0.40 0.41 0.42 0.43 0.42 0.41 0.37 0.33
0.12 0.14 0.13 0.07 0.01 0.00 0.00 0.00 0.00 0.00 0.00 0.00 0.00 0.00 0.00 0.00 0.00 0.00 0.00 0.00 0.01 0.01 0.03 0.10 0.20 0.29 0.34 0.37 0.40 0.37 0.38 0.39 0.39 0.38 0.40 0.41 0.41 0.37 0.35 0.33 0.33 0.34 0.37 0.40 0.42 0.44 0.46 0.45 0.38
0.15 0.18 0.15 0.07 0.01 0.00 0.00 0.00 0.00 0.00 0.00 0.00 0.00 0.00 0.00 0.00 0.00 0.00 0.00 0.01 0.01 0.02 0.05 0.12 0.23 0.32 0.36 0.39 0.43 0.42 0.43 0.45 0.43 0.43 0.45 0.46 0.45 0.44 0.43 0.40 0.36 0.32 0.31 0.33 0.37 0.38 0.41 0.44 0.40
0.21 0.18 0.12 0.06 0.02 0.01 0.00 0.00 0.00 0.00 0.00 0.00 0.00 0.00 0.00 0.00 0.00 0.00 0.00 0.01 0.01 0.02 0.06 0.14 0.27 0.36 0.40 0.44 0.49 0.48 0.49 0.54 0.54 0.53 0.51 0.50 0.48 0.47 0.47 0.43 0.39 0.36 0.34 0.34 0.35 0.36 0.40 0.43 0.43
0.18 0.17 0.08 0.04 0.02 0.01 0.00 0.00 0.01 0.01 0.00 0.00 0.00 0.00 0.00 0.00 0.00 0.00 0.01 0.02 0.03 0.04 0.07 0.14 0.26 0.36 0.44 0.50 0.52 0.52 0.52 0.56 0.57 0.58 0.57 0.54 0.54 0.55 0.56 0.52 0.47 0.44 0.41 0.40 0.37 0.35 0.33 0.35 0.42
0.16 0.18 0.10 0.04 0.03 0.02 0.01 0.01 0.01 0.01 0.01 0.00 0.01 0.01 0.01 0.01 0.01 0.01 0.02 0.03 0.05 0.08 0.11 0.17 0.27 0.36 0.42 0.48 0.54 0.54 0.52 0.57 0.60 0.60 0.60 0.59 0.59 0.61 0.62 0.57 0.51 0.47 0.45 0.41 0.37 0.34 0.30 0.27 0.27
0.24 0.25 0.12 0.04 0.03 0.02 0.02 0.02 0.02 0.02 0.03 0.02 0.01 0.01 0.01 0.01 0.02 0.03 0.05 0.07 0.10 0.12 0.15 0.21 0.33 0.41 0.45 0.48 0.49 0.56 0.60 0.64 0.64 0.63 0.60 0.59 0.55 0.52 0.49 0.47 0.49 0.49 0.46 0.41 0.36 0.34 0.31 0.26 0.21
0.30 0.24 0.10 0.04 0.03 0.04 0.04 0.04 0.05 0.05 0.04 0.03 0.03 0.02 0.02 0.03 0.04 0.05 0.06 0.08 0.11 0.13 0.16 0.23 0.33 0.42 0.49 0.50 0.53 0.62 0.62 0.63 0.63 0.60 0.60 0.57 0.53 0.50 0.46 0.42 0.43 0.46 0.47 0.45 0.42 0.38 0.32 0.26 0.20
0.25 0.19 0.09 0.05 0.05 0.05 0.05 0.05 0.06 0.07 0.06 0.05 0.04 0.04 0.05 0.05 0.07 0.07 0.07 0.08 0.11 0.15 0.20 0.25 0.34 0.43 0.52 0.54 0.54 0.57 0.58 0.60 0.63 0.66 0.65 0.65 0.63 0.60 0.59 0.54 0.53 0.48 0.44 0.44 0.43 0.41 0.36 0.33 0.29
0.18 0.13 0.10 0.08 0.08 0.08 0.08 0.06 0.06 0.06 0.05 0.05 0.05 0.04 0.06 0.07 0.07 0.09 0.09 0.10 0.13 0.20 0.24 0.30 0.38 0.46 0.52 0.57 0.60 0.58 0.57 0.56 0.58 0.63 0.66 0.66 0.65 0.63 0.62 0.59 0.54 0.50 0.47 0.46 0.44 0.41 0.35 0.31 0.27
0.15 0.10 0.09 0.09 0.12 0.11 0.10 0.07 0.06 0.05 0.03 0.03 0.04 0.04 0.06 0.08 0.09 0.11 0.13 0.14 0.17 0.22 0.27 0.33 0.43 0.49 0.53 0.60 0.64 0.66 0.62 0.57 0.53 0.56 0.60 0.61 0.61 0.61 0.58 0.53 0.48 0.46 0.45 0.42 0.36 0.31 0.27 0.24 0.24
0.14 0.11 0.09 0.09 0.12 0.12 0.11 0.08 0.06 0.03 0.02 0.03 0.03 0.04 0.05 0.07 0.09 0.11 0.16 0.18 0.18 0.20 0.26 0.33 0.43 0.52 0.58 0.60 0.62 0.63 0.66 0.62 0.59 0.55 0.52 0.55 0.56 0.56 0.57 0.56 0.54 0.49 0.43 0.40 0.37 0.32 0.27 0.22 0.19
0.15 0.16 0.13 0.09 0.10 0.12 0.15 0.12 0.04 0.01 0.02 0.04 0.04 0.04 0.04 0.05 0.08 0.10 0.13 0.17 0.18 0.21 0.28 0.38 0.46 0.58 0.66 0.66 0.66 0.66 0.66 0.67 0.64 0.62 0.59 0.55 0.53 0.51 0.54 0.57 0.54 0.51 0.47 0.42 0.38 0.36 0.33 0.28 0.21
0.22 0.27 0.20 0.09 0.07 0.10 0.21 0.18 0.03 0.01 0.02 0.04 0.05 0.05 0.04 0.05 0.06 0.08 0.10 0.14 0.18 0.25 0.31 0.41 0.50 0.60 0.69 0.73 0.74 0.71 0.69 0.69 0.69 0.65 0.66 0.63 0.57 0.54 0.55 0.57 0.56 0.52 0.49 0.46 0.42 0.39 0.36 0.32 0.27
0.34 0.29 0.16 0.08 0.07 0.11 0.21 0.16 0.04 0.01 0.02 0.03 0.04 0.05 0.05 0.04 0.06 0.08 0.10 0.12 0.17 0.23 0.30 0.42 0.53 0.56 0.63 0.75 0.80 0.79 0.77 0.76 0.75 0.73 0.69 0.66 0.62 0.57 0.55 0.56 0.56 0.58 0.57 0.53 0.49 0.44 0.39 0.35 0.31
0.29 0.20 0.13 0.10 0.09 0.14 0.16 0.10 0.03 0.02 0.04 0.03 0.03 0.04 0.05 0.05 0.04 0.06 0.11 0.13 0.17 0.23 0.30 0.39 0.54 0.58 0.63 0.74 0.90 0.91 0.88 0.86 0.83 0.79 0.72 0.68 0.66 0.60 0.54 0.54 0.54 0.56 0.57 0.54 0.51 0.46 0.39 0.35 0.33
0.17 0.20 0.18 0.11 0.09 0.18 0.17 0.10 0.04 0.02 0.04 0.04 0.03 0.03 0.04 0.04 0.03 0.04 0.09 0.15 0.20 0.24 0.29 0.38 0.54 0.60 0.68 0.76 0.84 0.90 0.83 0.84 0.83 0.80 0.77 0.71 0.70 0.68 0.62 0.56 0.54 0.54 0.53 0.50 0.46 0.46 0.44 0.41 0.40
0.22 0.25 0.20 0.14 0.12 0.19 0.18 0.10 0.04 0.02 0.03 0.03 0.03 0.03 0.04 0.04 0.04 0.05 0.08 0.13 0.19 0.23 0.25 0.31 0.47 0.58 0.64 0.68 0.70 0.74 0.76 0.78 0.81 0.78 0.81 0.80 0.76 0.76 0.70 0.60 0.58 0.57 0.55 0.52 0.47 0.45 0.48 0.46 0.44
0.22 0.20 0.17 0.16 0.16 0.20 0.20 0.13 0.04 0.02 0.02 0.03 0.04 0.05 0.05 0.04 0.04 0.05 0.06 0.08 0.15 0.21 0.22 0.27 0.39 0.53 0.61 0.67 0.80 0.84 0.90 0.97 0.96 0.90 0.82 0.80 0.81 0.80 0.79 0.70 0.61 0.60 0.59 0.57 0.51 0.45 0.45 0.47 0.44
0.22 0.11 0.12 0.17 0.30 0.30 0.22 0.23 0.07 0.03 0.04 0.04 0.04 0.04 0.04 0.04 0.04 0.05 0.05 0.07 0.12 0.17 0.20 0.25 0.39 0.52 0.60 0.68 0.78 0.84 0.83 0.87 0.88 0.82 0.79 0.74 0.75 0.79 0.77 0.77 0.71 0.65 0.62 0.57 0.54 0.50 0.46 0.49 0.51
0.19 0.09 0.13 0.20 0.32 0.38 0.24 0.29 0.11 0.05 0.06 0.07 0.07 0.07 0.06 0.05 0.04 0.04 0.05 0.06 0.10 0.17 0.22 0.26 0.36 0.53 0.64 0.71 0.73 0.77 0.76 0.72 0.76 0.86 0.86 0.83 0.79 0.79 0.79 0.76 0.76 0.73 0.67 0.61 0.58 0.58 0.56 0.55 0.57
0.23 0.22 0.26 0.31 0.52 0.68 0.24 0.23 0.13 0.09 0.10 0.09 0.08 0.08 0.08 0.07 0.05 0.05 0.05 0.06 0.09 0.19 0.26 0.32 0.36 0.47 0.63 0.75 0.77 0.74 0.73 0.72 0.76 0.85 0.91 0.93 0.89 0.83 0.78 0.76 0.74 0.73 0.69 0.62 0.58 0.59 0.61 0.61 0.58
0.44 0.65 1.00 1.01 0.98 0.57 0.10 0.15 0.15 0.09 0.07 0.08 0.09 0.08 0.07 0.07 0.06 0.06 0.07 0.09 0.10 0.17 0.26 0.33 0.39 0.42 0.52 0.71 0.79 0.76 0.74 0.71 0.70 0.77 0.83 0.87 0.91 0.89 0.82 0.76 0.72 0.69 0.67 0.65 0.63 0.63 0.61 0.60 0.63
0.50 0.69 0.91 0.79 0.45 0.15 0.05 0.10 0.11 0.06 0.04 0.05 0.06 0.07 0.06 0.05 0.06 0.07 0.08 0.11 0.12 0.15 0.23 0.33 0.41 0.44 0.49 0.60 0.73 0.77 0.80 0.78 0.72 0.71 0.78 0.81 0.81 0.82 0.83 0.82 0.75 0.67 0.63 0.64 0.67 0.67 0.64 0.63 0.65
0.39 0.50 0.47 0.60 0.39 0.21 0.11 0.07 0.07 0.04 0.03 0.02 0.02 0.04 0.07 0.07 0.08 0.09 0.10 0.11 0.12 0.15 0.21 0.27 0.36 0.47 0.50 0.53 0.67 0.77 0.83 0.83 0.74 0.69 0.73 0.79 0.80 0.82 0.87 0.88 0.85 0.77 0.70 0.66 0.65 0.66 0.66 0.69 0.67
0.31 0.36 0.55 0.89 0.77 0.35 0.12 0.07 0.09 0.07 0.05 0.03 0.03 0.03 0.06 0.07 0.08 0.09 0.12 0.12 0.12 0.13 0.19 0.25 0.29 0.41 0.54 0.55 0.60 0.75 0.81 0.86 0.83 0.77 0.73 0.72 0.73 0.79 0.90 0.93 0.87 0.86 0.81 0.75 0.70 0.66 0.65 0.70 0.71
0.36 0.46 0.67 0.82 0.68 0.46 0.22 0.13 0.13 0.08 0.06 0.06 0.05 0.04 0.06 0.07 0.08 0.10 0.15 0.16 0.15 0.14 0.19 0.25 0.29 0.38 0.52 0.61 0.61 0.67 0.77 0.82 0.87 0.86 0.78 0.72 0.71 0.73 0.80 0.91 0.91 0.89 0.89 0.84 0.80 0.77 0.74 0.74 0.74
0.34 0.40 0.52 0.77 0.65 0.39 0.30 0.14 0.09 0.07 0.05 0.06 0.06 0.05 0.05 0.07 0.09 0.12 0.19 0.20 0.19 0.18 0.21 0.26 0.27 0.32 0.43 0.58 0.68 0.67 0.72 0.84 0.86 0.79 0.75 0.77 0.74 0.72 0.75 0.84 0.96 0.97 0.94 0.90 0.86 0.85 0.89 0.94 0.89